"Pseudo-MPEC" for P21OfmP

Created 2023 Nov 21 14:22:11 UT using Find_Orb

Click here for an explanation of pseudo-MPECs

 
 Astrometry: 
     P21OfmP* C2023 11 18Jn?#@Cu'I(:FdS869BP8A4F\O5#LmL@gO:dKB3-\Yqiq-):7u5q0F52
     P21OfmP  C2023 11 185S9$1;*Xg%Ep?0uaw(wWg(aJvyEep/$HX5=cG*hm!-WPITYFeY3nF52
     P21OfmP  C2023 11 18t]js]0Dl0Hoi72,^qt+L[*K[Q6n^iV)99`_#bTFSAR88Lwdb:fl?F52
     P21OfmP  C2023 11 18wUp:_Lwe6$9%3`2Tl$Fs0[pPM5RKD#A8bm52%[6s:#3W%+#x-gYWF51
     P21OfmP  C2023 11 18aFJfjMa]jTr.@RC0K748E=IIp0jOg.jAstrometryg3V1`=nPKA9F51
     P21OfmP IC2023 11 18ks\Vxredacted;Nj6l5So8I%)SFkw3$.D?%mIQ4bv-yR+Mvu?2N4L01
     P21OfmP KC2023 11 18$Rm-_9S\1j$*pqT!_Ql;*QBalUOqaBXF51\ow't'QE[R+R)QGg]jL01
     P21OfmP KC2023 11 18Hc+:r[1YWjYGUpRwj4N6oZu!cLI+c9SMDmEYYYk#l82.?mySuiUdL01
     P21OfmP KC2023 11 18$sjM$T@1'$x79i:`['iFpByk1!!O%t@,RtLcUkA[CYOfM5G.kjTaK78
     P21OfmP KC2023 11 183S-x/bNh6HOhBU+wFL2C_a/gv0uBUP]h]j@F,H5Bpddl?oC@vV=5K78
     P21OfmP KC2023 11 18qMVH7,jl6M4srU@$W/!NMetl5fet*Tk119=]oS1])laJcbR6(L]=K78
     P21OfmP KC2023 11 19jI(-\drGWud;DqL'R/clicktRpxYPRaViXGm:ePOMx-4N[f]/r--204
     P21OfmP KC2023 11 194f7A'nhere0_;#SZX*d_(KaDM;2!vR8,%y9mfQ4GEya:V:NhD8M=104
     P21OfmP KC2023 11 19h%j)kEx72#7%pWV_$U^?InZx]Xj09.yrx\cxba5tL5)0tb@2'C;A104
     P21OfmP KC2023 11 19=Nf(gt'_L=J:T\f.qJ?E291m\l/X/]D7$rr=x6s#7=Jt]YforE-R204
     P21OfmP KC2023 11 19kskg'nv_X3]ok/B..2'1(s(Rme18Mc]F.:g6bcO@PgjAv2)*x1o^H21
     P21OfmP KC2023 11 19QXQ=jCD-'juX,]u5$HGS4explanationQ72a88p+/:NSH/x*0$B_H21
     P21OfmP KC2023 11 19meJH3#6:HZU`4n0?#KGWMW/E;?#7$p7j@_WwOulw/G7w;HsM=*TNH21
     P21OfmP KC2023 11 199yjX'6LsZm27jbf6_O^QLyyBr`VZ4o3X'5:a3R.yDSa0i!:MRf'+H21
     P21OfmP 1C2023 11 21/S1I0k7%XJamdY.Q1qPUJl@mmZAy*cU;f?`$yN`el?sw*DM:nsZbT12
     P21OfmP 1C2023 11 21@n]?H_I2ndR4$VgB^M-PF[M*%UDtNX6IMhO28;ZVmH[$5#be9bFfT12
     P21OfmP 1C2023 11 21mKu7yJJisP;%NS@cdh1ElGTcgmg4M9/l3h\`?RD[/?DsaUrSua@/T12

Station data:
(104) San Marcello Pistoiese  (N44.064178 E10.803750)  Italy.  Observers P.
   Bacci, M. Maestripieri. Measurers P. Bacci, L. Tesi, G. Fagioli. 0.60-m
   reflector + CCD.
(204) Schiaparelli Observatory  (N45.867930 E8.770800)  Italy.  Observer L.
   Buzzi. 0.60-m f/4.64 Newtonian + CCD0.84-m f/3.5 reflector + CCD.
(F51) Pan-STARRS 1, Haleakala  (N20.707234 W156.255910)  US/Hawaii.
   Observers J. Bulger, T. Lowe, A. Schultz, M. Willman. Measurers K.
   Chambers, S. Chastel, T. de Boer, L. Denneau, J. Fairlamb, H. Flewelling,
   M. Huber, C.-C. Lin, E. Magnier, Y. Ramanjooloo, R. Wainscoat, R. Weryk.
   1.8-m Ritchey-Chrétien + CCD.
(F52) Pan-STARRS 2, Haleakala  (N20.707382 W156.255910)  US/Hawaii.
   Observers J. Bulger, T. Dukes, T. Lowe, A. Schultz, M. Willman. Measurers
   K. Chambers, S. Chastel, T. de Boer, L. Denneau, J. Fairlamb, H.
   Flewelling, M. Huber, C.-C. Lin, E. Magnier, Y. Ramanjooloo, R. Wainscoat,
   R. Weryk. 1.8-m Ritchey-Chrétien + CCD.
(H21) Astronomical Research Observatory, Westfield  (N39.483054 W87.968270)
   US/Illinois.  Observer R. Holmes. Measurers S. Foglia, L. Buzzi, T.
   Linder, R. Holmes. 0.76-m f/3.0 astrograph + CCD0.81-m f/4.0 astrograph +
   CCD0.61-m f/4.5 astrograph + CCD0.40-m f/5.32 astrograph + CCD.
(K78) iota Scorpii Observatory, La Spezia  (N44.126274 E9.853560)  Italy.
   Observers G. Scarfi, L. Sannino, L. Bertagna, F. Francini. Measurers G.
   Scarfi, L. Sannino. 0.40-m f/6 reflector + CCD.
(L01) Višnjan Observatory, Tičan  (N45.290897 E13.749300)  Croatia.
   Observers K. Korlević, D. Pujagic, V. Dobos. Measurers D. Pujagic, K.
   Korlević. 1.0-m f/2.9 reflector + CCD.
(T12) Mauna Kea-UH/Tholen NEO Follow-Up (2.24-m)  (N19.822991 W155.469434)
   US/Hawaii.  Observer R. Weryk. 2.24-m f/10.1 University of Hawaii
   reflector.

Orbital elements:  P21OfmP
   Perihelion 2023 Dec 18.13072 +/- 0.108 TT =  3:08:14 (JD 2460296.63072)
Epoch 2023 Nov 21.0 TT = JDT 2460269.5   Earth MOID: 0.1361      AutoNEOCP
M 345.77248563 +/- 0.12             (J2000 ecliptic)
n   0.52440608 +/- 0.00242          Peri.   38.59966 +/- 0.10
a   1.52296842 +/- 0.00469          Node    44.05539 +/- 0.0042
e   0.2923679 +/- 0.00184           Incl.   26.17147 +/- 0.09
P   1.88/686.48d           H 23.47  G  0.15   U  8.7
q 1.07770121 +/- 0.000521    Q 1.96823563 +/- 0.00886
From 22 observations 2023 Nov. 18-21; mean residual 0".36
Residuals in arcseconds: 
231118 F52  .24-  .53+    231118 K78  .43+  .54-    231119 H21  .06-  .07+    
231118 F52  .21+  .04-    231118 K78  .68+  .11+    231119 H21  .07-  .16+    
231118 F52  .04-  .20-    231118 K78  .07+  .33+    231119 H21  .26-  .18-    
231118 F51  .15-  .06+    231119 204  .11-  .10-    231121 T12  .27-  .05+    
231118 F51  .16+  .36-    231119 104  .19-  .05+    231121 T12  .09+  .28-    
231118 L01  1.0+  .11-    231119 104  .87-  .64+    231121 T12  .18+  .22+    
231118 L01  .48+  .38+    231119 204  .19+  .30-    
231118 L01  .79-  .18-    231119 H21  .15-  .02+    

Ephemerides (geocentric):
Date (UTC) HH   RA             Dec           delta  r     elong  mag " sig PA
---- --------  ------------   ------------  ------ ------ -----  --- --------
2023 11 21 14  00 24 28.184   +46 35 18.67  .16440 1.1033 131.3 21.4 .086   0
2023 11 21 15  00 24 05.427   +46 39 35.07  .16457 1.1032 131.2 21.4 .086 178
2023 11 21 16  00 23 42.673   +46 43 50.60  .16475 1.1031 131.1 21.4 .086 176
2023 11 21 17  00 23 19.922   +46 48 05.27  .16493 1.1031 131.0 21.4 .087 173
2023 11 21 18  00 22 57.174   +46 52 19.06  .16511 1.1030 130.8 21.4 .087 171
2023 11 21 19  00 22 34.430   +46 56 31.99  .16529 1.1029 130.7 21.4 .088 169
2023 11 21 20  00 22 11.689   +47 00 44.04  .16547 1.1028 130.6 21.4 .088 167
2023 11 21 21  00 21 48.951   +47 04 55.24  .16565 1.1027 130.5 21.4 .089 165
2023 11 21 22  00 21 26.217   +47 09 05.56  .16584 1.1027 130.4 21.4 .090 163
2023 11 21 23  00 21 03.487   +47 13 15.03  .16602 1.1026 130.3 21.4 .091 161
2023 11 22 00  00 20 40.761   +47 17 23.63  .16620 1.1025 130.2 21.5 .092 159
2023 11 22 01  00 20 18.039   +47 21 31.37  .16638 1.1024 130.1 21.5 .093 157
2023 11 22 02  00 19 55.321   +47 25 38.26  .16657 1.1024 130.0 21.5 .095 155
2023 11 22 03  00 19 32.608   +47 29 44.28  .16675 1.1023 129.9 21.5 .096 153
2023 11 22 04  00 19 09.900   +47 33 49.45  .16694 1.1022 129.8 21.5 .098 151
2023 11 22 05  00 18 47.196   +47 37 53.77  .16712 1.1021 129.7 21.5 .099 149
2023 11 22 06  00 18 24.498   +47 41 57.23  .16731 1.1021 129.6 21.5 .101 147
2023 11 22 07  00 18 01.804   +47 45 59.84  .16749 1.1020 129.5 21.5 .103 145
2023 11 22 08  00 17 39.116   +47 50 01.60  .16768 1.1019 129.4 21.5 .105 143
2023 11 22 09  00 17 16.433   +47 54 02.52  .16787 1.1018 129.3 21.5 .107 141
2023 11 22 10  00 16 53.756   +47 58 02.58  .16805 1.1017 129.2 21.5 .110 140
2023 11 22 11  00 16 31.085   +48 02 01.80  .16824 1.1017 129.1 21.5 .112 138
2023 11 22 12  00 16 08.419   +48 06 00.18  .16843 1.1016 129.0 21.5 .114 136
2023 11 22 13  00 15 45.760   +48 09 57.71  .16862 1.1015 128.9 21.5 .117 135
2023 11 22 14  00 15 23.106   +48 13 54.40  .16881 1.1014 128.8 21.5 .120 133
2023 11 22 15  00 15 00.459   +48 17 50.26  .16900 1.1014 128.7 21.5 .123 132
2023 11 22 16  00 14 37.819   +48 21 45.28  .16919 1.1013 128.6 21.5 .126 130
2023 11 22 17  00 14 15.185   +48 25 39.46  .16938 1.1012 128.5 21.5 .129 129
2023 11 22 18  00 13 52.558   +48 29 32.80  .16957 1.1011 128.4 21.5 .132 127
2023 11 22 19  00 13 29.938   +48 33 25.32  .16976 1.1011 128.3 21.5 .135 126
2023 11 22 20  00 13 07.326   +48 37 17.00  .16995 1.1010 128.2 21.5 .138 125
2023 11 22 21  00 12 44.720   +48 41 07.85  .17015 1.1009 128.1 21.5 .141 124
2023 11 22 22  00 12 22.122   +48 44 57.88  .17034 1.1008 128.1 21.6 .145 122
2023 11 22 23  00 11 59.532   +48 48 47.08  .17053 1.1008 128.0 21.6 .148 121
2023 11 23 00  00 11 36.949   +48 52 35.46  .17073 1.1007 127.9 21.6 .152 120
2023 11 23 01  00 11 14.374   +48 56 23.02  .17092 1.1006 127.8 21.6 .156 119
2023 11 23 02  00 10 51.807   +49 00 09.75  .17111 1.1005 127.7 21.6 .159 118
2023 11 23 03  00 10 29.248   +49 03 55.67  .17131 1.1005 127.6 21.6 .163 117
2023 11 23 04  00 10 06.698   +49 07 40.77  .17150 1.1004 127.5 21.6 .167 116
2023 11 23 05  00 09 44.156   +49 11 25.05  .17170 1.1003 127.4 21.6 .171 115
2023 11 23 06  00 09 21.623   +49 15 08.53  .17190 1.1002 127.3 21.6 .175 114
2023 11 23 07  00 08 59.098   +49 18 51.19  .17209 1.1002 127.2 21.6 .179 113
2023 11 23 08  00 08 36.583   +49 22 33.04  .17229 1.1001 127.1 21.6 .183 112
2023 11 23 09  00 08 14.076   +49 26 14.08  .17249 1.1000 127.0 21.6 .188 112
2023 11 23 10  00 07 51.579   +49 29 54.32  .17269 1.1000 126.9 21.6 .192 111
2023 11 23 11  00 07 29.091   +49 33 33.76  .17288 1.0999 126.8 21.6 .196 110
2023 11 23 12  00 07 06.613   +49 37 12.39  .17308 1.0998 126.7 21.6 .201 109
2023 11 23 13  00 06 44.144   +49 40 50.22  .17328 1.0997 126.6 21.6 .205 108